User: anonymous   Login
Location: Unspecified
(0.0000°N, 0.0000°E)
Time: 19:55:51
(UTC+00:00)
Language:

Alouette 1 - Orbit

View from above orbital plane
View from above orbital plane
View from above satellite
View from above satellite

Ground track
Ground track

The orbit data is extracted from the following two-line orbital elements,

1 00424U 62049A   15215.59722688  .00000045  00000-0  41374-4 0  9994
2 00424 080.4645 222.9662 0023830 040.0438 099.5378 13.69021863637931
Epoch (UTC): 03 August 2015 14:20:00
Eccentricity: 0.0023830
inclination: 80.4645°
perigee height: 985 km
apogee height: 1020 km
right ascension of ascending node: 222.9662°
argument of perigee: 40.0438°
revolutions per day: 13.69021863
mean anomaly at epoch: 99.5378°
orbit number at epoch: 63793

The dashed part of the orbit path shows where the satellite is in the earth's shadow,  

DLR